Theta_e
313 312 312 312 312 312 312 312 313 313 313 314 315 316 317 318 318 311 303 313 320 328 323 316 317 316 314 313 316 316 308 303 304 307 309 314 313 317 322 322 323 324 324 330 331
313 312 312 312 312 312 311 311 312 312 312 313 314 316 317 318 311 306 315 325 326 327 313 312 311 313 312 311 313 312 307 306 311 314 312 313 315 317 319 320 319 319 325 329 330
314 314 313 312 312 312 312 311 311 312 312 313 314 316 317 316 305 302 320 323 324 320 315 314 313 311 309 310 311 310 306 311 312 314 314 312 312 314 317 314 319 317 320 325 326
313 314 314 312 312 312 311 311 311 311 312 313 314 315 317 311 286 309 317 319 323 316 312 312 309 304 307 306 310 306 310 309 311 311 311 311 313 314 316 315 321 324 324 326 325
315 314 314 313 312 312 311 311 311 310 312 313 313 315 311 301 299 312 315 316 315 314 309 308 306 303 304 307 307 307 308 310 309 309 310 312 313 313 308 313 322 323 322 321 318
316 315 314 314 312 311 311 311 311 310 311 312 313 314 305 292 307 311 310 310 310 312 310 310 307 308 302 304 305 309 308 308 308 312 312 311 310 312 304 310 312 311 310 310 310
316 315 315 314 313 311 311 311 311 310 310 312 313 310 301 297 309 310 309 308 310 310 307 312 312 305 304 301 307 305 303 304 305 309 305 310 304 300 304 308 307 306 306 305 304
315 315 315 314 313 312 311 311 311 310 310 313 313 307 295 306 310 308 310 307 311 312 312 315 314 307 303 305 306 301 303 299 302 304 305 304 300 299 303 305 303 303 303 302 301
315 315 315 313 312 311 310 311 311 310 312 312 306 302 292 308 303 307 308 304 308 311 312 313 311 304 303 299 297 299 296 299 297 300 301 303 300 299 303 304 302 302 301 301 300
314 314 314 313 311 310 310 310 308 309 307 308 307 297 297 296 302 304 308 307 304 306 305 305 302 298 298 295 286 292 293 299 298 297 299 298 297 299 302 304 302 302 302 300 299
315 314 313 312 310 309 306 305 298 295 298 294 293 293 296 301 304 302 306 305 304 303 293 301 293 289 293 297 295 294 295 296 295 295 297 299 293 298 300 302 300 300 300 300 299
314 314 313 311 309 307 305 298 297 298 289 294 296 296 299 301 294 298 306 298 297 292 295 295 290 295 299 299 295 293 289 290 293 294 295 294 293 293 297 299 300 299 299 299 297
314 313 312 310 308 305 302 300 304 303 290 289 294 296 297 299 293 295 301 299 294 292 292 289 292 297 297 296 293 292 287 289 291 291 294 293 289 290 293 295 296 299 299 298 297
313 313 312 309 303 302 299 303 304 298 283 282 289 294 297 298 291 298 301 298 294 289 293 291 294 294 294 294 295 289 294 293 291 290 287 293 287 290 293 293 294 295 296 295 293
312 312 309 303 301 298 300 303 300 295 271 283 289 300 296 292 294 295 302 298 290 291 292 288 291 291 290 292 297 293 297 294 293 290 287 286 288 293 292 291 293 295 295 294 292
311 308 306 302 303 300 302 297 296 281 271 280 287 287 287 290 291 295 295 300 298 291 293 291 295 293 293 294 295 298 296 295 294 288 282 286 288 290 289 293 294 294 294 293 292
308 306 303 301 297 301 298 295 281 275 279 279 280 284 284 284 286 289 288 288 285 282 283 289 290 293 294 291 294 293 292 284 281 281 283 289 287 293 298 298 296 294 293 293 292
305 302 299 298 300 300 296 287 273 271 274 282 283 283 281 284 285 286 284 283 289 288 284 282 280 289 294 291 288 289 290 284 277 279 284 287 286 292 294 295 299 296 295 294 292
302 298 298 298 298 298 292 279 277 275 282 281 282 279 279 282 284 284 284 284 287 289 282 282 282 291 291 294 293 288 286 292 285 282 284 287 290 294 290 292 295 295 294 292 291
299 296 295 297 296 295 287 280 278 281 284 284 277 279 277 280 279 280 283 287 286 291 292 287 281 290 292 294 295 291 295 286 287 279 279 283 286 289 288 289 291 291 292 291 291
296 292 296 295 295 290 282 279 278 284 285 282 279 278 281 280 281 280 283 287 289 289 292 289 286 285 290 288 288 290 288 289 290 285 281 279 284 292 293 292 291 291 292 291 290
293 286 295 294 286 274 281 278 284 283 287 285 285 282 281 281 280 280 282 285 289 291 286 290 286 281 285 289 290 290 291 290 284 282 283 282 284 286 287 292 293 292 292 293 291
290 289 293 293 283 281 277 279 283 282 283 283 282 284 284 280 278 281 284 288 288 289 288 290 284 279 281 286 290 288 290 292 289 288 284 283 284 287 287 289 292 291 290 289 289
289 284 287 286 283 282 277 277 278 284 284 285 283 284 282 280 283 280 282 287 290 288 289 292 285 282 279 281 287 284 288 290 290 285 284 285 287 285 286 288 290 289 289 288 288
286 283 282 282 282 281 280 277 276 278 283 284 282 282 280 277 280 279 282 284 288 288 288 286 282 282 283 283 284 286 287 289 288 289 285 286 287 289 287 288 289 290 289 288 287
285 284 283 279 281 281 281 280 279 280 281 280 280 281 282 278 280 278 280 281 281 284 285 287 280 280 280 283 285 284 287 289 290 289 289 288 287 289 288 289 288 288 288 287 287
286 286 287 281 281 281 282 281 281 283 284 285 283 282 281 283 285 285 285 284 283 280 281 282 281 280 278 281 282 281 284 287 289 291 291 286 291 286 284 286 287 288 288 288 287
Wind_Speed
5 5 6 5 7 9 10 11 12 12 13 13 14 14 14 16 18 9 7 2 2 8 11 8 7 7 6 4 4 3 7 11 13 10 8 10 8 3 3 10 5 3 4 13 18
6 5 5 5 6 7 9 10 11 12 12 13 13 15 15 14 10 10 6 10 5 7 4 8 5 8 6 5 6 8 8 12 7 7 8 13 10 10 8 12 6 6 10 17 19
4 6 5 5 5 7 8 9 11 12 12 12 13 15 16 14 5 1 12 10 5 3 1 3 6 8 10 5 7 6 10 7 7 5 6 11 10 4 9 7 5 13 16 18 16
6 6 7 6 6 7 8 9 10 11 12 12 13 15 17 4 4 3 14 14 6 6 2 2 5 6 8 11 6 8 10 6 5 5 6 12 10 9 8 3 2 17 16 14 14
7 7 8 7 6 6 7 8 9 11 12 12 13 14 7 5 6 7 14 11 2 8 9 3 2 8 11 10 8 11 7 8 3 5 6 10 9 10 8 8 12 14 12 12 12
10 8 8 8 7 7 8 8 9 11 12 12 12 11 2 8 5 10 13 9 6 5 10 9 3 3 7 5 14 8 8 7 8 9 9 14 11 5 3 6 12 14 12 10 11
10 10 8 9 8 7 7 8 9 11 12 12 11 5 3 10 8 12 9 6 4 4 6 6 6 3 8 3 6 3 10 7 7 11 5 19 7 5 6 7 12 13 10 10 9
7 9 9 9 8 6 7 9 9 10 11 11 8 3 6 3 11 9 7 6 4 3 3 12 7 5 1 12 7 9 8 12 6 8 8 6 10 4 8 9 11 11 9 9 7
8 8 9 8 6 5 8 11 12 10 11 8 4 2 6 9 7 11 5 5 6 1 3 9 4 5 1 5 2 4 15 21 8 2 7 7 9 10 11 9 10 11 9 8 8
7 8 8 7 4 3 9 13 8 5 1 2 3 5 1 6 9 10 5 6 4 3 5 5 4 7 4 8 5 8 7 20 14 6 7 9 8 12 10 13 12 11 9 8 7
8 9 9 6 2 3 5 3 2 2 3 4 5 4 6 11 7 3 4 2 3 4 9 11 9 18 23 19 12 8 8 12 5 1 5 9 10 13 12 12 13 11 10 9 7
10 11 10 7 4 4 2 3 3 2 5 2 6 5 6 4 5 5 5 3 6 11 5 8 15 14 12 16 13 10 8 8 2 1 3 10 12 7 9 9 10 12 11 10 9
12 12 10 8 7 3 4 3 1 2 4 3 3 4 3 4 4 5 5 2 6 10 10 12 3 11 13 16 18 16 6 5 7 5 9 13 5 8 8 5 6 7 7 8 10
13 12 10 8 3 1 3 2 2 1 2 5 3 1 2 3 4 4 3 3 3 9 8 10 4 12 8 16 17 17 20 12 5 10 5 5 7 9 12 10 10 11 10 9 10
13 12 9 2 6 1 3 3 2 2 3 7 4 5 7 3 7 2 2 3 6 4 6 6 5 7 16 10 12 4 21 16 9 4 4 4 4 4 14 16 16 14 12 10 10
14 13 10 4 3 2 2 2 1 1 4 3 6 8 8 2 2 4 3 2 2 6 9 8 0 5 7 10 9 6 12 13 10 2 4 8 5 7 13 23 18 16 14 13 13
13 11 6 1 3 3 1 1 1 2 4 5 4 7 11 5 5 2 3 5 5 4 8 7 10 2 3 7 8 8 8 5 6 4 1 11 7 2 13 13 21 20 17 15 14
12 8 7 4 2 0 0 2 2 2 4 4 4 12 5 4 3 4 4 6 10 7 2 8 6 9 7 8 7 14 14 4 5 3 4 3 5 3 3 1 13 19 18 17 18
9 3 3 5 4 1 1 1 1 4 2 5 7 4 3 2 4 5 6 9 7 15 10 6 7 1 2 3 7 9 10 3 4 2 3 5 2 4 2 3 11 18 20 19 18
3 2 2 6 3 1 2 2 1 2 4 2 4 2 4 4 4 3 4 3 5 13 13 4 5 0 8 2 4 7 7 6 2 9 6 5 4 7 10 13 13 19 22 20 18
3 2 1 4 1 3 2 2 3 4 3 3 2 4 6 5 4 5 5 2 6 6 16 8 5 3 3 8 12 7 10 4 2 1 5 5 4 1 9 17 21 19 20 20 20
2 2 3 2 2 1 1 4 1 2 1 3 3 6 4 4 7 5 5 4 5 4 11 9 2 5 7 2 3 3 5 13 7 6 1 2 3 1 1 6 12 14 15 16 18
2 2 1 2 2 2 2 1 3 4 4 3 4 3 4 4 6 6 5 5 1 3 5 8 4 3 1 2 2 5 4 9 3 2 6 3 3 3 1 7 11 15 15 15 17
3 2 2 3 1 3 4 3 3 3 3 3 4 2 3 4 6 5 6 4 5 5 8 4 2 4 3 1 2 9 8 8 12 4 5 4 4 3 4 9 13 15 17 18 18
3 1 1 3 2 2 2 3 2 3 4 3 3 4 4 4 4 3 4 6 4 9 2 1 5 3 1 2 4 5 11 13 13 9 9 6 4 4 11 13 15 15 17 18 19
5 5 1 3 3 3 3 5 5 3 4 3 4 3 5 4 3 4 5 4 4 8 5 4 1 2 2 4 2 2 8 15 16 11 10 5 6 1 2 8 13 15 16 18 19
1 1 1 3 3 3 4 4 4 2 5 3 3 3 6 4 5 6 5 6 5 4 5 5 2 1 2 2 2 6 9 14 13 10 14 12 5 6 4 10 14 15 16 17 16
Wind_Direction
301 324 338 348 353 351 353 355 354 352 349 347 341 336 333 330 324 299 259 235 274 332 329 307 287 264 243 188 174 177 225 207 204 200 171 161 155 117 114 128 96 61 70 119 132
278 299 318 328 336 343 348 349 351 349 348 346 341 333 330 331 308 276 299 318 301 4 359 352 307 302 220 203 180 211 222 210 203 195 182 172 170 140 161 142 101 88 110 128 136
314 276 289 307 319 329 338 345 348 348 348 345 343 334 328 323 277 165 346 328 326 42 218 323 297 275 225 204 189 179 215 199 200 194 186 152 133 101 162 162 147 155 145 141 144
274 275 273 298 311 322 327 335 342 342 345 340 342 336 325 271 254 53 342 325 308 174 88 334 291 238 224 202 196 198 215 196 171 169 169 164 122 100 69 17 133 140 143 140 146
260 254 264 277 296 305 314 325 335 337 338 337 338 342 330 255 261 357 338 326 275 172 169 132 27 307 204 207 184 225 196 193 150 149 139 134 119 115 72 63 101 118 118 116 110
244 229 243 255 274 291 308 319 324 331 329 333 333 339 310 267 347 339 332 320 348 176 163 135 168 262 286 235 210 221 210 184 164 151 134 135 125 147 83 117 107 103 99 95 98
234 226 225 237 258 280 302 313 318 325 321 322 329 331 255 258 322 324 313 298 303 314 177 159 140 73 337 292 352 246 183 159 166 164 127 135 107 96 111 144 118 111 110 103 91
234 219 211 223 247 279 301 308 305 311 308 310 325 282 266 250 310 309 325 289 270 286 203 142 114 103 184 332 251 196 203 187 156 169 161 235 171 167 138 155 133 127 124 112 92
228 209 202 211 237 285 306 302 301 308 300 310 271 301 279 314 355 325 307 287 305 257 141 155 152 88 26 267 236 256 198 200 160 188 152 208 147 167 164 161 146 134 135 129 118
214 194 188 194 217 301 304 298 302 301 325 261 249 259 272 330 321 309 283 271 269 288 154 157 125 168 213 229 196 187 219 195 182 154 185 146 140 150 158 182 158 145 142 143 128
185 173 169 170 160 8 339 333 303 179 38 326 309 295 302 319 286 270 319 278 239 218 204 199 171 209 187 220 196 296 246 214 130 82 148 182 142 165 174 181 156 157 159 154 127
161 155 155 149 125 72 47 60 53 17 316 297 283 275 282 298 295 301 327 233 208 218 200 206 218 212 219 199 196 215 277 305 1 25 137 148 149 149 198 180 173 166 166 160 140
145 143 141 137 114 61 68 73 315 226 275 303 296 304 322 326 302 298 338 285 232 218 207 222 303 163 209 185 193 198 201 249 241 148 67 133 146 176 209 177 178 172 173 163 148
133 131 135 135 122 99 74 15 2 268 331 357 324 91 294 293 261 285 296 285 238 229 212 228 243 201 183 202 191 208 191 225 207 181 173 255 179 207 190 193 198 184 186 167 139
124 126 114 24 125 96 55 352 75 245 309 347 312 324 305 265 324 187 301 239 265 258 211 175 194 193 200 208 199 230 163 180 202 210 138 200 188 158 168 208 201 192 183 174 141
118 119 116 77 68 39 4 84 259 259 256 339 324 354 347 302 265 304 301 238 314 263 258 233 202 212 182 193 218 136 166 170 189 166 226 170 207 183 189 214 186 185 180 167 148
109 87 68 50 74 346 42 30 321 224 356 343 336 336 332 287 300 265 308 218 229 198 229 212 224 262 184 133 213 230 172 163 201 182 296 164 184 267 207 206 186 180 175 170 166
103 86 61 57 2 189 110 72 228 66 259 272 303 307 281 315 257 310 283 254 221 229 255 226 204 206 202 209 182 205 207 189 237 175 135 109 200 226 32 149 189 170 169 174 170
108 58 66 15 6 270 103 196 271 192 258 328 310 307 284 285 289 308 243 252 232 201 207 213 243 159 241 195 151 185 212 204 81 19 136 175 218 230 123 145 163 167 169 175 173
90 89 63 333 340 85 78 280 176 238 306 24 284 207 287 293 329 283 244 227 233 212 211 188 243 139 189 214 232 203 140 178 221 163 194 200 229 222 195 181 174 176 180 175 170
73 105 47 340 268 60 257 205 223 246 278 246 303 290 267 300 276 276 279 273 248 206 210 215 247 97 169 210 200 174 192 222 76 340 199 167 216 210 207 192 187 186 182 175 170
120 98 9 289 59 28 182 166 231 248 250 261 256 246 284 295 287 271 275 265 287 302 193 198 194 210 211 11 300 304 213 201 202 199 43 324 131 57 292 210 184 178 181 173 167
102 95 41 274 198 171 249 157 264 217 217 220 266 233 244 273 289 243 285 315 336 329 153 168 207 197 200 229 210 236 194 210 163 64 196 175 142 9 162 167 173 168 166 160 161
128 130 24 61 34 137 184 152 251 226 254 256 284 305 294 275 231 286 314 321 351 33 15 313 212 264 227 330 329 207 210 211 205 208 157 235 188 240 188 183 177 166 165 166 168
27 140 350 152 173 153 175 138 207 230 225 224 234 252 285 287 283 302 318 316 56 9 18 4 219 204 281 276 292 280 206 193 204 222 212 158 205 168 197 192 188 174 169 170 173
137 151 132 115 149 170 203 199 198 229 216 209 232 245 245 254 275 305 334 10 27 325 355 346 33 45 247 261 293 257 234 206 213 200 231 173 228 33 51 159 173 183 175 176 176
139 58 141 153 166 207 207 183 203 185 208 240 260 283 248 260 248 269 262 278 273 330 329 340 317 222 192 282 132 268 217 204 214 228 208 207 193 164 188 191 188 184 186 184 182